This demonstration page uses our WeatherBlox Daily Observations layout. Learn more.

Left ArrowRight Arrow

Hourly Observations for February 8, 2016

Temp ( °F °C ) Dew Point ( °F °C ) Humidity (%) Winds ( mph kmh ) Pressure ( in mb ) Visibility ( mi km ) Precip ( " mm )
12:58 am 00:58 Cloudy 31 -0.5 22 -5.5 69 69 NW 16 26 30.03 1017 10 16 0.00 0.00
1:58 am 01:58 Mostly Cloudy 32 -0.2 19 -7.3 59 59 NW 31 50 30.01 1016 10 16 0.00 0.00
2:58 am 02:58 Mostly Clear 30 -1.1 19 -7.1 64 64 NNW 21 33 30.03 1017 10 16 0.00 0.00
3:58 am 03:58 Cloudy 29 -1.7 19 -7.3 66 66 NNW 21 33 30.03 1017 10 16 0.00 0.00
4:36 am 04:36 Cloudy with Light Snow 28 -2 19 -7 69 69 NNW 18 30 30.06 1018 10 16 0.00 0.00
4:58 am 04:58 Windy with Snow Likely 29 -1.4 19 -7.2 65 65 NNW 20 31 30.03 1017 10 16 0.00 0.03
5:08 am 05:08 Windy with Snow Likely 30 -1 19 -7 64 64 NW 22 35 30.06 1018 10 16 0.00 0.00
5:58 am 05:58 Windy with Snow Likely 29 -1.8 19 -7 68 68 NNW 21 33 30.05 1018 10 16 0.00 0.03
6:37 am 06:37 Windy with Snow Likely 28 -2 18 -8 64 64 NNW 23 37 30.09 1019 10 16 0.00 0.00
6:52 am 06:52 Windy with Snow Likely 28 -2 18 -8 64 64 NNW 23 37 30.09 1019 10 16 0.00 0.00
6:58 am 06:58 Windy with Snow Likely 28 -2.2 19 -7.5 67 67 NNW 23 37 30.06 1018 10 16 0.00 0.03
7:18 am 07:18 Windy with Snow Likely 28 -2 18 -8 64 64 NNW 28 44 30.09 1019 10 16 0.00 0.00
7:58 am 07:58 Windy with Snow Likely 28 -2.3 19 -7.1 70 70 NNW 25 41 30.08 1019 10 16 0.00 0.03
8:20 am 08:20 Cloudy 28 -2 18 -8 64 64 NW 22 35 30.09 1019 10 16 0.00 0.00
8:45 am 08:45 Windy with Snow Likely 28 -2 18 -8 64 64 NW 25 41 30.12 1020 10 16 0.00 0.00
8:58 am 08:58 Windy with Snow Likely 28 -2 18 -8 64 64 NNW 23 37 30.11 1020 10 16 0.00 0.03
9:58 am 09:58 Windy with Snow Likely 28 -2.2 17 -8.5 62 62 NW 29 46 30.12 1020 7 11 0.00 0.03
10:37 am 10:37 Cloudy 28 -2 16 -9 59 59 NNW 18 30 30.15 1021 10 16 0.00 0.00
10:58 am 10:58 Cloudy 28 -2 16 -8.7 61 61 NNW 24 39 30.14 1021 10 16 0.00 0.03
11:05 am 11:05 Windy with Snow Likely 28 -2 16 -9 59 59 NNW 33 54 30.15 1021 10 16 0.00 0.00
11:43 am 11:43 Windy with Snow Likely 28 -2 18 -8 64 64 NNW 23 37 30.15 1021 7 11 0.00 0.00
11:58 am 11:58 Windy with Snow Likely 28 -2.3 17 -8.1 65 65 NNW 25 41 30.16 1021 7 11 0.00 0.03
12:26 pm 12:26 Cloudy 28 -2 16 -9 59 59 NNW 30 48 30.15 1021 10 16 0.00 0.00
12:58 pm 12:58 Cloudy 28 -2 16 -8.9 60 60 NNW 30 48 30.13 1020 10 16 0.00 0.03
1:00 pm 13:00 Cloudy with Light Wintry Mix 28 -2 16 -9 59 59 NNW 24 39 30.15 1021 10 16 0.00 0.00
1:38 pm 13:38 Cloudy 28 -2 18 -8 64 64 NW 32 52 30.12 1020 10 16 0.00 0.00
1:58 pm 13:58 Cloudy 29 -1.8 17 -8.6 60 60 NNW 23 37 30.13 1020 10 16 0.00 0.00
2:58 pm 14:58 Cloudy 29 -1.4 17 -8.4 59 59 NNW 24 39 30.13 1020 10 16 0.00 0.00
3:58 pm 15:58 Mostly Sunny 31 -0.7 17 -8.5 56 56 NNW 23 37 30.13 1020 10 16 0.00 0.00
4:58 pm 16:58 Mostly Sunny 30 -1.2 17 -8.3 59 59 NNW 21 33 30.15 1021 10 16 0.00 0.00
5:58 pm 17:58 Clear 29 -1.7 17 -8.1 62 62 NW 16 26 30.14 1021 10 16 0.00 0.00
6:58 pm 18:58 Clear 28 -2 18 -8 64 64 NNW 9 15 30.14 1021 10 16 0.00 0.00
7:58 pm 19:58 Clear 28 -2.1 18 -7.9 65 65 NW 12 19 30.14 1021 10 16 0.00 0.00
8:58 pm 20:58 Clear 28 -2.4 18 -7.9 66 66 NW 10 17 30.14 1021 10 16 0.00 0.00
9:58 pm 21:58 Cloudy 28 -2.3 17 -8.1 65 65 NW 12 19 30.13 1020 10 16 0.00 0.00
10:58 pm 22:58 Clear 27 -2.9 17 -8.6 65 65 NNW 17 28 30.13 1020 10 16 0.00 0.00
11:58 pm 23:58 Clear 26 -3.6 14 -9.8 63 63 NNW 13 20 30.13 1020 10 16 0.00 0.00

Powered by AerisWeather